Location: Gerlach
(40.6516°N, 119.3568°W)
Time: 13:09:37
(UTC-07:00)

STRAND 1 - Visible Passes

Search period start: 22 April 2024 00:00
Search period end: 02 May 2024 00:00
Orbit: 764 x 779 km, 98.4° (Epoch: 21 April)

Date Brightness Start Highest point End Pass type
(mag) Time Alt. Az. Time Alt. Az. Time Alt. Az.
23 Apr ? 05:25:49 10° ESE 05:29:36 22° ENE 05:33:23 10° NNE visible
23 Apr ? 20:53:58 10° NNW 20:57:06 17° WNW 21:00:12 10° W visible
24 Apr ? 04:54:18 10° ENE 04:55:12 10° ENE 04:56:07 10° NE visible
24 Apr ? 20:18:03 10° N 20:22:34 33° WNW 20:27:05 10° SW visible
26 Apr ? 05:20:39 10° ESE 05:24:11 19° ENE 05:27:44 10° NNE visible
26 Apr ? 20:48:15 10° NNW 20:51:41 18° WNW 20:55:06 10° WSW visible
27 Apr ? 20:12:29 10° N 20:17:08 37° WNW 20:21:46 10° SW visible
29 Apr ? 05:15:29 10° ESE 05:18:45 17° ENE 05:22:01 10° NNE visible
29 Apr ? 20:42:33 10° NNW 20:46:14 20° WNW 20:49:56 10° WSW visible
01 May ? 21:13:45 10° NW 21:15:12 11° WNW 21:16:39 10° WNW visible
